Location: Meanaryar
(48.4161°N, 4.7315°W)
Time: 06:34:45
(UTC+00:00)

Cosmos 2251 Rocket - Pass Details

Date: 18 September 2020
Orbit: 765 x 792 km, 74.0° (Epoch: 23 October)

Event Time Altitude Azimuth Distance (km) Brightness Sun altitude
Rises 21:47:09 0° 338° (NNW) 3,302 7.7 -31.0°
Reaches altitude 10° 21:49:35 10° 342° (NNW) 2,367 6.8 -31.3°
Enters shadow 21:53:18 43° 1° (N) 1,101 4.5 -31.7°
